| time (UTC) | temp C | wind direction | speed KPH | gust KPH | rain 1hr cm | rain 24hr cm | rain mn cm | humidity % | barometer mb |
| 20260507170215 | 15 | 224 | 4.8 | 17.7 | 0.00 | 0.00 | 0.00 | 48 | 1016.9 |
| 20260507165721 | 15 | 259 | 6.4 | 14.5 | 0.00 | 0.00 | 0.00 | 51 | 1016.9 |
| 20260507165215 | 14 | 57 | 6.4 | 16.1 | 0.00 | 0.00 | 0.00 | 51 | 1016.9 |
| 20260507164729 | 14 | 315 | 4.8 | 17.7 | 0.00 | 0.00 | 0.00 | 47 | 1016.8 |
| 20260507164222 | 14 | 334 | 8.0 | 12.9 | 0.00 | 0.00 | 0.00 | 46 | 1017.1 |
| 20260507163718 | 13 | 271 | 6.4 | 16.1 | 0.00 | 0.00 | 0.00 | 43 | 1017.1 |
| 20260507163231 | 13 | 287 | 4.8 | 16.1 | 0.00 | 0.00 | 0.00 | 45 | 1017.1 |
| 20260507162745 | 13 | 303 | 6.4 | 14.5 | 0.00 | 0.00 | 0.00 | 49 | 1017.1 |
| 20260507162216 | 13 | 316 | 8.0 | 17.7 | 0.00 | 0.00 | 0.00 | 48 | 1017.2 |
| 20260507161730 | 14 | 333 | 9.7 | 17.7 | 0.00 | 0.00 | 0.00 | 47 | 1017.2 |
| 20260507161222 | 13 | 302 | 4.8 | 17.7 | 0.00 | 0.00 | 0.00 | 48 | 1017.1 |
| 20260507160715 | 13 | 260 | 4.8 | 19.3 | 0.00 | 0.00 | 0.00 | 50 | 1017.2 |
| 20260507160249 | 13 | 339 | 11.3 | 25.7 | 0.00 | 0.00 | 0.00 | 46 | 1017.3 |
| 20260507155713 | 13 | 329 | 9.7 | 25.7 | 0.00 | 0.00 | 0.00 | 46 | 1017.2 |
| 20260507155231 | 13 | 326 | 4.8 | 11.3 | 0.00 | 0.00 | 0.00 | 56 | 1017.2 |
| 20260507154744 | 13 | 304 | 4.8 | 20.9 | 0.00 | 0.00 | 0.00 | 52 | 1017.1 |
| 20260507154216 | 12 | 330 | 6.4 | 27.4 | 0.00 | 0.00 | 0.00 | 53 | 1017.1 |
| 20260507153729 | 12 | 345 | 12.9 | 27.4 | 0.00 | 0.00 | 0.00 | 52 | 1017.2 |
| 20260507153242 | 13 | 264 | 4.8 | 14.5 | 0.00 | 0.00 | 0.00 | 51 | 1017.2 |
| 20260507152715 | 13 | 329 | 3.2 | 14.5 | 0.00 | 0.00 | 0.00 | 53 | 1017.1 |
| 20260507152229 | 13 | 350 | 3.2 | 11.3 | 0.00 | 0.00 | 0.00 | 57 | 1017.1 |
| 20260507151722 | 12 | 329 | 3.2 | 11.3 | 0.00 | 0.00 | 0.00 | 53 | 1017.1 |
| 20260507151215 | 12 | 267 | 4.8 | 11.3 | 0.00 | 0.00 | 0.00 | 53 | 1017.2 |
| 20260507150732 | 12 | 256 | 3.2 | 12.9 | 0.00 | 0.00 | 0.00 | 56 | 1017.2 |
| 20260507150225 | 12 | 305 | 4.8 | 17.7 | 0.00 | 0.00 | 0.00 | 57 | 1017.2 |
| 20260507145731 | 12 | 343 | 6.4 | 17.7 | 0.00 | 0.00 | 0.00 | 53 | 1017.2 |
| 20260507145223 | 12 | 29 | 4.8 | 12.9 | 0.00 | 0.00 | 0.00 | 55 | 1017.2 |
| 20260507144716 | 12 | 335 | 8.0 | 17.7 | 0.00 | 0.00 | 0.00 | 55 | 1017.2 |
| 20260507144229 | 12 | 354 | 4.8 | 20.9 | 0.00 | 0.00 | 0.00 | 53 | 1017.1 |
| 20260507143721 | 12 | 328 | 9.7 | 20.9 | 0.00 | 0.00 | 0.00 | 56 | 1017.1 |
| 20260507143235 | 12 | 262 | 4.8 | 14.5 | 0.00 | 0.00 | 0.00 | 59 | 1017.1 |
| 20260507142728 | 11 | 11 | 6.4 | 16.1 | 0.00 | 0.00 | 0.00 | 57 | 1017.1 |
| 20260507142225 | 11 | 328 | 9.7 | 22.5 | 0.00 | 0.00 | 0.00 | 58 | 1017.2 |
| 20260507141737 | 11 | 292 | 6.4 | 22.5 | 0.00 | 0.00 | 0.00 | 58 | 1017.2 |
| 20260507141229 | 11 | 360 | 6.4 | 17.7 | 0.00 | 0.00 | 0.00 | 56 | 1017.1 |
| 20260507140721 | 11 | 335 | 8.0 | 17.7 | 0.00 | 0.00 | 0.00 | 56 | 1017.1 |
| 20260507140214 | 11 | 347 | 9.7 | 16.1 | 0.00 | 0.00 | 0.00 | 59 | 1017.1 |
| 20260507135720 | 11 | 25 | 11.3 | 20.9 | 0.00 | 0.00 | 0.00 | 57 | 1017.2 |
| 20260507135214 | 11 | 4 | 12.9 | 19.3 | 0.00 | 0.00 | 0.00 | 59 | 1017.1 |
| 20260507134746 | 11 | 322 | 6.4 | 11.3 | 0.00 | 0.00 | 0.00 | 60 | 1017.1 |
| 20260507134219 | 11 | 357 | 4.8 | 9.7 | 0.00 | 0.00 | 0.00 | 63 | 1017.1 |
| 20260507133716 | 10 | 314 | 1.6 | 17.7 | 0.00 | 0.00 | 0.00 | 67 | 1017.0 |
| 20260507133229 | 10 | 311 | 8.0 | 17.7 | 0.00 | 0.00 | 0.00 | 64 | 1017.0 |
| 20260507132741 | 10 | 3 | 4.8 | 20.9 | 0.00 | 0.00 | 0.00 | 68 | 1017.0 |
| 20260507132213 | 10 | 352 | 9.7 | 20.9 | 0.00 | 0.00 | 0.00 | 64 | 1017.1 |
| 20260507131725 | 10 | 333 | 9.7 | 12.9 | 0.00 | 0.00 | 0.00 | 67 | 1017.1 |
| 20260507131238 | 10 | 5 | 4.8 | 9.7 | 0.00 | 0.00 | 0.00 | 70 | 1017.1 |
| 20260507130730 | 10 | 309 | 4.8 | 9.7 | 0.00 | 0.00 | 0.00 | 72 | 1017.1 |
| 20260507130222 | 9 | 312 | 3.2 | 11.3 | 0.00 | 0.00 | 0.00 | 76 | 1017.0 |
| 20260507125728 | 8 | 321 | 6.4 | 9.7 | 0.00 | 0.00 | 0.00 | 76 | 1017.1 |
| 20260507125225 | 8 | 338 | 4.8 | 11.3 | 0.00 | 0.00 | 0.00 | 78 | 1017.0 |
| 20260507124718 | 8 | 345 | 6.4 | 11.3 | 0.00 | 0.00 | 0.00 | 79 | 1017.1 |
| 20260507124226 | 8 | 357 | 6.4 | 9.7 | 0.00 | 0.00 | 0.00 | 79 | 1017.1 |
| 20260507123719 | 8 | 338 | 6.4 | 9.7 | 0.00 | 0.00 | 0.00 | 80 | 1017.1 |
| 20260507123231 | 7 | 4 | 4.8 | 8.0 | 0.00 | 0.00 | 0.00 | 81 | 1017.3 |
| 20260507122724 | 7 | 11 | 4.8 | 6.4 | 0.00 | 0.00 | 0.00 | 82 | 1017.3 |
| 20260507122236 | 7 | 333 | 4.8 | 6.4 | 0.00 | 0.00 | 0.00 | 82 | 1017.4 |
| 20260507121749 | 7 | 352 | 4.8 | 8.0 | 0.00 | 0.00 | 0.00 | 82 | 1017.4 |
| 20260507121219 | 7 | 345 | 4.8 | 8.0 | 0.00 | 0.00 | 0.00 | 83 | 1017.4 |
| 20260507120752 | 7 | 349 | 3.2 | 4.8 | 0.00 | 0.00 | 0.00 | 84 | 1017.4 |
| 20260507120227 | 7 | 359 | 1.6 | 4.8 | 0.00 | 0.00 | 0.00 | 84 | 1017.4 |
| 20260507115714 | 7 | 360 | 3.2 | 6.4 | 0.00 | 0.00 | 0.00 | 84 | 1017.4 |
| 20260507115226 | 7 | 356 | 3.2 | 6.4 | 0.00 | 0.00 | 0.00 | 85 | 1017.3 |
| 20260507114718 | 6 | 337 | 3.2 | 4.8 | 0.00 | 0.00 | 0.00 | 86 | 1017.3 |
| 20260507114231 | 6 | 329 | 1.6 | 4.8 | 0.00 | 0.00 | 0.00 | 86 | 1017.4 |
| 20260507113744 | 6 | 298 | 1.6 | 6.4 | 0.00 | 0.00 | 0.00 | 86 | 1017.2 |
| 20260507113216 | 6 | 307 | 1.6 | 6.4 | 0.00 | 0.00 | 0.00 | 87 | 1017.3 |
| 20260507112749 | 6 | 326 | 1.6 | 3.2 | 0.00 | 0.00 | 0.00 | 87 | 1017.3 |
| 20260507112240 | 6 | 303 | 1.6 | 3.2 | 0.00 | 0.00 | 0.00 | 88 | 1017.2 |
| 20260507111731 | 6 | 323 | 0.0 | 3.2 | 0.00 | 0.00 | 0.00 | 88 | 1017.1 |
| 20260507111229 | 6 | 317 | 0.0 | 4.8 | 0.00 | 0.00 | 0.00 | 88 | 1017.0 |
| 20260507110722 | 5 | 307 | 0.0 | 6.4 | 0.00 | 0.00 | 0.00 | 89 | 1016.9 |
| 20260507110214 | 5 | 321 | 1.6 | 6.4 | 0.00 | 0.00 | 0.00 | 89 | 1016.8 |
| 20260507105721 | 5 | 324 | 1.6 | 4.8 | 0.00 | 0.00 | 0.00 | 90 | 1016.7 |
| 20260507105229 | 5 | 328 | 0.0 | 4.8 | 0.00 | 0.00 | 0.00 | 91 | 1016.6 |
| 20260507104721 | 5 | 323 | 0.0 | 3.2 | 0.00 | 0.00 | 0.00 | 91 | 1016.6 |
| 20260507104235 | 5 | 323 | 0.0 | 3.2 | 0.00 | 0.00 | 0.00 | 91 | 1016.5 |
| 20260507103727 | 5 | 329 | 1.6 | 3.2 | 0.00 | 0.00 | 0.00 | 91 | 1016.5 |
| 20260507103220 | 5 | 331 | 0.0 | 1.6 | 0.00 | 0.00 | 0.00 | 92 | 1016.6 |
| 20260507102718 | 5 | 331 | 0.0 | 1.6 | 0.00 | 0.00 | 0.00 | 92 | 1016.5 |
| 20260507102231 | 5 | 331 | 0.0 | 1.6 | 0.00 | 0.00 | 0.00 | 92 | 1016.5 |
| 20260507101725 | 5 | 331 | 0.0 | 1.6 | 0.00 | 0.00 | 0.00 | 92 | 1016.5 |
| 20260507101238 | 5 | 331 | 0.0 | 3.2 | 0.00 | 0.00 | 0.00 | 92 | 1016.5 |
| 20260507100751 | 5 | 331 | 1.6 | 4.8 | 0.00 | 0.00 | 0.00 | 92 | 1016.4 |
| 20260507100223 | 5 | 297 | 0.0 | 3.2 | 0.00 | 0.00 | 0.00 | 92 | 1016.5 |
| 20260507095751 | 5 | 318 | 0.0 | 3.2 | 0.00 | 0.00 | 0.00 | 92 | 1016.5 |
| 20260507095223 | 5 | 318 | 0.0 | 3.2 | 0.00 | 0.00 | 0.00 | 92 | 1016.5 |
| 20260507094737 | 5 | 311 | 0.0 | 3.2 | 0.00 | 0.00 | 0.00 | 92 | 1016.6 |
| 20260507094230 | 5 | 313 | 0.0 | 3.2 | 0.00 | 0.00 | 0.00 | 93 | 1016.6 |
| 20260507093727 | 5 | 320 | 0.0 | 1.6 | 0.00 | 0.00 | 0.00 | 93 | 1016.6 |
| 20260507093220 | 5 | 320 | 0.0 | 1.6 | 0.00 | 0.00 | 0.00 | 93 | 1016.5 |
| 20260507092714 | 6 | 320 | 0.0 | 3.2 | 0.00 | 0.00 | 0.00 | 93 | 1016.4 |
| 20260507092227 | 6 | 320 | 0.0 | 3.2 | 0.00 | 0.00 | 0.00 | 94 | 1016.4 |
| 20260507091721 | 6 | 323 | 0.0 | 3.2 | 0.00 | 0.00 | 0.00 | 94 | 1016.4 |
| 20260507091215 | 6 | 324 | 0.0 | 0.0 | 0.00 | 0.00 | 0.00 | 93 | 1016.4 |
| 20260507090729 | 6 | 324 | 0.0 | 0.0 | 0.00 | 0.00 | 0.00 | 94 | 1016.3 |
| 20260507090222 | 6 | 324 | 0.0 | 0.0 | 0.00 | 0.00 | 0.00 | 94 | 1016.2 |
| 20260507085749 | 6 | 324 | 0.0 | 0.0 | 0.00 | 0.08 | 0.00 | 93 | 1016.2 |
| 20260507085224 | 6 | 324 | 0.0 | 0.0 | 0.00 | 0.08 | 0.00 | 93 | 1016.3 |
| 20260507084718 | 6 | 324 | 0.0 | 0.0 | 0.00 | 0.08 | 0.00 | 93 | 1016.2 |
| 20260507084231 | 6 | 324 | 0.0 | 0.0 | 0.00 | 0.08 | 0.00 | 93 | 1016.2 |
| 20260507083725 | 6 | 325 | 0.0 | 0.0 | 0.00 | 0.08 | 0.00 | 92 | 1016.1 |
| 20260507083218 | 6 | 324 | 0.0 | 0.0 | 0.00 | 0.08 | 0.00 | 92 | 1016.0 |
| 20260507082732 | 6 | 324 | 0.0 | 0.0 | 0.00 | 0.08 | 0.00 | 92 | 1015.9 |
| 20260507082226 | 6 | 325 | 0.0 | 0.0 | 0.00 | 0.08 | 0.00 | 91 | 1016.0 |
| 20260507081723 | 6 | 325 | 0.0 | 0.0 | 0.00 | 0.08 | 0.00 | 91 | 1015.8 |
| 20260507081217 | 6 | 325 | 0.0 | 0.0 | 0.00 | 0.08 | 0.00 | 90 | 1015.9 |
| 20260507080731 | 6 | 325 | 0.0 | 0.0 | 0.00 | 0.08 | 0.00 | 90 | 1015.8 |
| 20260507080225 | 7 | 324 | 0.0 | 0.0 | 0.00 | 0.08 | 0.00 | 90 | 1015.9 |
| 20260507075731 | 6 | 325 | 0.0 | 0.0 | 0.00 | 0.20 | 0.00 | 90 | 1015.8 |
| 20260507075225 | 6 | 325 | 0.0 | 0.0 | 0.00 | 0.20 | 0.00 | 90 | 1015.8 |
| 20260507074718 | 7 | 325 | 0.0 | 3.2 | 0.00 | 0.20 | 0.00 | 90 | 1015.8 |
| 20260507074232 | 7 | 324 | 0.0 | 3.2 | 0.00 | 0.20 | 0.00 | 91 | 1015.9 |
| 20260507073729 | 7 | 319 | 0.0 | 1.6 | 0.00 | 0.20 | 0.00 | 91 | 1015.8 |
| 20260507073224 | 7 | 319 | 0.0 | 1.6 | 0.00 | 0.20 | 0.00 | 90 | 1015.8 |
| 20260507072737 | 7 | 309 | 0.0 | 1.6 | 0.00 | 0.20 | 0.00 | 90 | 1015.8 |
| 20260507072230 | 7 | 307 | 0.0 | 1.6 | 0.00 | 0.20 | 0.00 | 89 | 1015.9 |
| 20260507071724 | 7 | 295 | 0.0 | 1.6 | 0.00 | 0.20 | 0.00 | 89 | 1015.9 |
| 20260507071217 | 7 | 300 | 0.0 | 1.6 | 0.00 | 0.20 | 0.00 | 89 | 1016.2 |
| 20260507070731 | 7 | 300 | 0.0 | 1.6 | 0.00 | 0.20 | 0.00 | 89 | 1016.0 |
| 20260507070225 | 7 | 298 | 0.0 | 1.6 | 0.00 | 0.20 | 0.00 | 89 | 1015.9 |
| 20260507065752 | 7 | 278 | 0.0 | 1.6 | 0.00 | 0.48 | 0.00 | 88 | 1015.8 |
| 20260507065228 | 7 | 278 | 0.0 | 1.6 | 0.00 | 0.48 | 0.00 | 89 | 1016.1 |
| 20260507064741 | 7 | 278 | 0.0 | 1.6 | 0.00 | 0.48 | 0.00 | 89 | 1016.0 |
| 20260507064214 | 7 | 278 | 0.0 | 1.6 | 0.00 | 0.48 | 0.00 | 90 | 1016.0 |
| 20260507063728 | 7 | 278 | 0.0 | 1.6 | 0.00 | 0.48 | 0.00 | 89 | 1016.0 |
| 20260507063221 | 7 | 278 | 0.0 | 1.6 | 0.00 | 0.48 | 0.00 | 88 | 1016.0 |
| 20260507062715 | 7 | 278 | 0.0 | 1.6 | 0.00 | 0.48 | 0.00 | 88 | 1016.1 |
| 20260507062229 | 7 | 278 | 0.0 | 1.6 | 0.00 | 0.48 | 0.00 | 88 | 1016.2 |
| 20260507061722 | 7 | 328 | 0.0 | 0.0 | 0.00 | 0.48 | 0.00 | 89 | 1016.1 |
| 20260507061220 | 7 | 328 | 0.0 | 0.0 | 0.00 | 0.48 | 0.00 | 89 | 1016.1 |
| 20260507060734 | 7 | 328 | 0.0 | 0.0 | 0.00 | 0.48 | 0.00 | 88 | 1016.1 |
| 20260507060226 | 7 | 328 | 0.0 | 0.0 | 0.00 | 0.48 | 0.00 | 87 | 1016.0 |
| 20260507055713 | 7 | 328 | 0.0 | 0.0 | 0.00 | 0.71 | 0.00 | 85 | 1015.8 |
| 20260507055247 | 8 | 328 | 0.0 | 0.0 | 0.00 | 0.71 | 0.00 | 84 | 1016.0 |
| 20260507054719 | 8 | 328 | 0.0 | 0.0 | 0.00 | 0.71 | 0.00 | 84 | 1016.1 |
| 20260507054213 | 8 | 328 | 0.0 | 0.0 | 0.00 | 0.71 | 0.00 | 83 | 1016.1 |
| 20260507053727 | 8 | 328 | 0.0 | 0.0 | 0.00 | 0.71 | 0.00 | 82 | 1016.1 |
| 20260507053220 | 8 | 328 | 0.0 | 0.0 | 0.00 | 0.71 | 0.00 | 81 | 1016.2 |
| 20260507052717 | 8 | 328 | 0.0 | 0.0 | 0.00 | 0.71 | 0.00 | 80 | 1016.2 |
| 20260507052250 | 8 | 328 | 0.0 | 0.0 | 0.00 | 0.71 | 0.00 | 80 | 1016.2 |
| 20260507051723 | 8 | 328 | 0.0 | 0.0 | 0.00 | 0.71 | 0.00 | 81 | 1016.2 |
| 20260507051217 | 8 | 328 | 0.0 | 0.0 | 0.00 | 0.71 | 0.00 | 81 | 1016.3 |
| 20260507050730 | 8 | 328 | 0.0 | 0.0 | 0.00 | 0.71 | 0.00 | 81 | 1016.2 |
| 20260507050224 | 8 | 328 | 0.0 | 0.0 | 0.00 | 0.71 | 0.00 | 83 | 1016.0 |
| 20260507045752 | 8 | 328 | 0.0 | 0.0 | 0.00 | 1.17 | 0.00 | 84 | 1016.0 |
| 20260507045224 | 8 | 328 | 0.0 | 0.0 | 0.00 | 1.17 | 0.00 | 84 | 1016.0 |
| 20260507044717 | 8 | 328 | 0.0 | 0.0 | 0.00 | 1.17 | 0.00 | 82 | 1016.2 |
| 20260507044215 | 9 | 328 | 0.0 | 0.0 | 0.00 | 1.17 | 0.00 | 82 | 1016.3 |
| 20260507043728 | 9 | 328 | 0.0 | 0.0 | 0.00 | 1.17 | 0.00 | 81 | 1016.3 |
| 20260507043221 | 8 | 328 | 0.0 | 0.0 | 0.00 | 1.17 | 0.00 | 81 | 1016.2 |
| 20260507042715 | 8 | 328 | 0.0 | 1.6 | 0.00 | 1.17 | 0.00 | 82 | 1016.2 |
| 20260507042249 | 8 | 328 | 0.0 | 0.0 | 0.00 | 1.17 | 0.00 | 82 | 1016.4 |
| 20260507041721 | 8 | 328 | 0.0 | 1.6 | 0.00 | 1.17 | 0.00 | 82 | 1016.5 |
| 20260507041215 | 8 | 328 | 0.0 | 0.0 | 0.00 | 1.17 | 0.00 | 81 | 1016.3 |
| 20260507040729 | 8 | 328 | 0.0 | 0.0 | 0.00 | 1.17 | 0.00 | 81 | 1016.4 |
| 20260507040223 | 9 | 328 | 0.0 | 0.0 | 0.00 | 1.17 | 0.00 | 81 | 1016.5 |
| 20260507035730 | 9 | 328 | 0.0 | 0.0 | 0.00 | 1.19 | 1.17 | 80 | 1016.5 |
| 20260507035223 | 9 | 328 | 0.0 | 0.0 | 0.00 | 1.19 | 1.17 | 80 | 1016.4 |
| 20260507034717 | 9 | 328 | 0.0 | 0.0 | 0.00 | 1.19 | 1.17 | 79 | 1016.2 |
| 20260507034230 | 9 | 328 | 0.0 | 0.0 | 0.00 | 1.19 | 1.17 | 79 | 1016.3 |
| 20260507033723 | 10 | 328 | 0.0 | 0.0 | 0.00 | 1.19 | 1.17 | 79 | 1016.3 |
| 20260507033217 | 10 | 328 | 0.0 | 1.6 | 0.00 | 1.19 | 1.17 | 79 | 1016.2 |
| 20260507032751 | 10 | 328 | 0.0 | 1.6 | 0.00 | 1.19 | 1.17 | 79 | 1016.0 |
| 20260507032220 | 10 | 328 | 0.0 | 1.6 | 0.00 | 1.19 | 1.17 | 79 | 1016.0 |
| 20260507031718 | 10 | 328 | 0.0 | 1.6 | 0.00 | 1.19 | 1.17 | 79 | 1016.1 |
| 20260507031231 | 10 | 328 | 0.0 | 0.0 | 0.00 | 1.19 | 1.17 | 80 | 1016.1 |
| 20260507030725 | 10 | 328 | 0.0 | 0.0 | 0.00 | 1.19 | 1.17 | 79 | 1016.1 |
| 20260507030218 | 10 | 328 | 0.0 | 1.6 | 0.00 | 1.19 | 1.17 | 78 | 1016.2 |
| 20260507025726 | 10 | 328 | 0.0 | 1.6 | 0.00 | 1.19 | 1.17 | 78 | 1016.2 |
| 20260507025219 | 10 | 328 | 0.0 | 1.6 | 0.00 | 1.19 | 1.17 | 77 | 1016.0 |
| 20260507024753 | 11 | 328 | 0.0 | 1.6 | 0.00 | 1.19 | 1.17 | 76 | 1016.1 |
| 20260507024225 | 11 | 328 | 0.0 | 1.6 | 0.00 | 1.19 | 1.17 | 75 | 1016.1 |
| 20260507023719 | 11 | 328 | 0.0 | 0.0 | 0.00 | 1.19 | 1.17 | 75 | 1016.2 |
| 20260507023216 | 11 | 328 | 0.0 | 0.0 | 0.00 | 1.19 | 1.17 | 75 | 1016.0 |
| 20260507022730 | 11 | 328 | 0.0 | 0.0 | 0.00 | 1.19 | 1.17 | 74 | 1015.9 |
| 20260507022244 | 11 | 328 | 0.0 | 0.0 | 0.00 | 1.19 | 1.17 | 74 | 1015.8 |
| 20260507021737 | 11 | 328 | 0.0 | 0.0 | 0.00 | 1.19 | 1.17 | 73 | 1015.8 |
| 20260507021229 | 11 | 328 | 0.0 | 1.6 | 0.00 | 1.19 | 1.17 | 72 | 1015.8 |
| 20260507020722 | 11 | 328 | 0.0 | 1.6 | 0.00 | 1.19 | 1.17 | 72 | 1015.8 |
| 20260507020216 | 11 | 328 | 0.0 | 0.0 | 0.00 | 1.19 | 1.17 | 72 | 1015.8 |
| 20260507015723 | 11 | 328 | 0.0 | 1.6 | 0.00 | 1.22 | 1.17 | 71 | 1015.6 |
| 20260507015216 | 11 | 328 | 0.0 | 1.6 | 0.00 | 1.22 | 1.17 | 70 | 1015.7 |
| 20260507014714 | 11 | 328 | 0.0 | 1.6 | 0.00 | 1.22 | 1.17 | 70 | 1015.7 |
| 20260507014228 | 11 | 329 | 0.0 | 3.2 | 0.00 | 1.22 | 1.17 | 70 | 1015.6 |
| 20260507013741 | 12 | 329 | 0.0 | 3.2 | 0.00 | 1.22 | 1.17 | 69 | 1015.7 |
| 20260507013214 | 12 | 329 | 0.0 | 4.8 | 0.00 | 1.22 | 1.17 | 70 | 1015.7 |
| 20260507012727 | 12 | 330 | 1.6 | 6.4 | 0.00 | 1.22 | 1.17 | 70 | 1015.6 |
| 20260507012220 | 12 | 316 | 0.0 | 3.2 | 0.00 | 1.22 | 1.17 | 69 | 1015.6 |
| 20260507011713 | 12 | 334 | 0.0 | 3.2 | 0.00 | 1.22 | 1.17 | 70 | 1015.5 |
| 20260507011225 | 12 | 344 | 0.0 | 3.2 | 0.00 | 1.22 | 1.17 | 69 | 1015.5 |
| 20260507010721 | 12 | 316 | 0.0 | 3.2 | 0.00 | 1.22 | 1.17 | 69 | 1015.6 |
| 20260507010214 | 12 | 330 | 0.0 | 3.2 | 0.00 | 1.22 | 1.17 | 69 | 1015.4 |
| 20260507005718 | 12 | 331 | 0.0 | 3.2 | 0.00 | 1.22 | 1.17 | 69 | 1015.3 |
| 20260507005251 | 12 | 331 | 1.6 | 3.2 | 0.00 | 1.22 | 1.17 | 69 | 1015.2 |
| 20260507004722 | 12 | 318 | 0.0 | 3.2 | 0.00 | 1.22 | 1.17 | 69 | 1015.3 |
| 20260507004215 | 12 | 323 | 0.0 | 3.2 | 0.00 | 1.22 | 1.17 | 69 | 1015.3 |
| 20260507003729 | 12 | 320 | 0.0 | 3.2 | 0.00 | 1.22 | 1.17 | 69 | 1015.3 |
| 20260507003221 | 12 | 320 | 1.6 | 8.0 | 0.00 | 1.22 | 1.17 | 68 | 1015.3 |
| 20260507002713 | 13 | 328 | 3.2 | 8.0 | 0.00 | 1.22 | 1.17 | 68 | 1015.1 |
| 20260507002230 | 13 | 342 | 3.2 | 4.8 | 0.00 | 1.22 | 1.17 | 68 | 1015.2 |
| 20260507001722 | 13 | 290 | 1.6 | 4.8 | 0.00 | 1.22 | 1.17 | 67 | 1015.1 |
| 20260507001215 | 13 | 324 | 0.0 | 4.8 | 0.00 | 1.22 | 1.17 | 66 | 1015.1 |
| 20260507000730 | 13 | 272 | 1.6 | 4.8 | 0.00 | 1.22 | 1.17 | 67 | 1014.9 |
| 20260507000222 | 13 | 327 | 1.6 | 6.4 | 0.00 | 1.22 | 1.17 | 67 | 1014.9 |
| 20260506235730 | 13 | 333 | 1.6 | 8.0 | 0.00 | 1.37 | 1.17 | 66 | 1015.1 |
| 20260506235222 | 13 | 313 | 3.2 | 8.0 | 0.00 | 1.37 | 1.17 | 65 | 1015.0 |
| 20260506234716 | 13 | 321 | 1.6 | 6.4 | 0.00 | 1.37 | 1.17 | 66 | 1015.0 |
| 20260506234214 | 13 | 333 | 1.6 | 6.4 | 0.00 | 1.37 | 1.17 | 67 | 1014.8 |
| 20260506233728 | 13 | 335 | 3.2 | 6.4 | 0.00 | 1.37 | 1.17 | 66 | 1014.8 |
| 20260506233221 | 13 | 326 | 1.6 | 8.0 | 0.00 | 1.37 | 1.17 | 66 | 1014.9 |
| 20260506232715 | 13 | 331 | 1.6 | 9.7 | 0.00 | 1.37 | 1.17 | 64 | 1014.8 |
| 20260506232228 | 13 | 314 | 3.2 | 11.3 | 0.00 | 1.37 | 1.17 | 65 | 1014.7 |
| 20260506231722 | 13 | 333 | 6.4 | 12.9 | 0.00 | 1.37 | 1.17 | 65 | 1014.6 |
| 20260506231215 | 13 | 267 | 4.8 | 12.9 | 0.00 | 1.37 | 1.17 | 64 | 1014.5 |
| 20260506230713 | 13 | 317 | 4.8 | 11.3 | 0.00 | 1.37 | 1.17 | 64 | 1014.5 |
| 20260506230227 | 13 | 340 | 3.2 | 9.7 | 0.00 | 1.37 | 1.17 | 63 | 1014.3 |
| 20260506225732 | 14 | 345 | 1.6 | 8.0 | 0.00 | 1.37 | 1.17 | 66 | 1014.2 |
| 20260506225225 | 14 | 323 | 3.2 | 9.7 | 0.00 | 1.37 | 1.17 | 64 | 1014.2 |
| 20260506224719 | 14 | 11 | 4.8 | 12.9 | 0.00 | 1.37 | 1.17 | 64 | 1014.2 |
| 20260506224213 | 14 | 322 | 4.8 | 14.5 | 0.00 | 1.37 | 1.17 | 63 | 1014.2 |
| 20260506223727 | 14 | 7 | 8.0 | 14.5 | 0.00 | 1.37 | 1.17 | 62 | 1014.2 |
| 20260506223241 | 14 | 337 | 6.4 | 16.1 | 0.00 | 1.37 | 1.17 | 63 | 1014.3 |
| 20260506222753 | 14 | 353 | 6.4 | 16.1 | 0.00 | 1.37 | 1.17 | 63 | 1014.3 |
| 20260506222226 | 14 | 321 | 11.3 | 16.1 | 0.00 | 1.37 | 1.17 | 62 | 1014.2 |
| 20260506221723 | 15 | 338 | 8.0 | 12.9 | 0.00 | 1.37 | 1.17 | 64 | 1014.2 |
| 20260506221236 | 15 | 345 | 4.8 | 11.3 | 0.00 | 1.37 | 1.17 | 65 | 1014.2 |
| 20260506220730 | 15 | 321 | 6.4 | 20.9 | 0.00 | 1.37 | 1.17 | 64 | 1014.2 |
| 20260506220223 | 15 | 318 | 9.7 | 20.9 | 0.00 | 1.37 | 1.17 | 63 | 1014.2 |
| 20260506215728 | 15 | 332 | 3.2 | 14.5 | 0.00 | 1.47 | 1.17 | 64 | 1014.3 |
| 20260506215221 | 15 | 341 | 6.4 | 14.5 | 0.00 | 1.47 | 1.17 | 61 | 1014.2 |
| 20260506214714 | 15 | 345 | 3.2 | 9.7 | 0.00 | 1.47 | 1.17 | 60 | 1014.4 |
| 20260506214227 | 15 | 334 | 4.8 | 9.7 | 0.00 | 1.47 | 1.17 | 61 | 1014.5 |
| 20260506213739 | 15 | 321 | 1.6 | 9.7 | 0.00 | 1.47 | 1.17 | 60 | 1014.5 |
| 20260506213214 | 15 | 316 | 3.2 | 9.7 | 0.00 | 1.47 | 1.17 | 59 | 1014.5 |
| 20260506212727 | 15 | 286 | 3.2 | 6.4 | 0.00 | 1.47 | 1.17 | 59 | 1014.4 |
| 20260506212219 | 15 | 273 | 1.6 | 4.8 | 0.00 | 1.47 | 1.17 | 58 | 1014.3 |
| 20260506211731 | 15 | 347 | 1.6 | 6.4 | 0.00 | 1.47 | 1.17 | 59 | 1014.2 |
| 20260506211224 | 15 | 274 | 1.6 | 8.0 | 0.00 | 1.47 | 1.17 | 59 | 1014.3 |
| 20260506210717 | 15 | 313 | 3.2 | 8.0 | 0.00 | 1.47 | 1.17 | 59 | 1014.3 |
| 20260506210230 | 15 | 304 | 3.2 | 9.7 | 0.00 | 1.47 | 1.17 | 59 | 1014.4 |
| 20260506205715 | 16 | 323 | 4.8 | 9.7 | 0.00 | 1.83 | 1.17 | 60 | 1014.2 |
| 20260506205232 | 16 | 341 | 1.6 | 9.7 | 0.00 | 1.83 | 1.17 | 62 | 1014.1 |
| 20260506204726 | 16 | 328 | 3.2 | 11.3 | 0.00 | 1.83 | 1.17 | 61 | 1014.2 |
| 20260506204219 | 15 | 344 | 3.2 | 11.3 | 0.00 | 1.83 | 1.17 | 61 | 1014.0 |
| 20260506203731 | 15 | 328 | 3.2 | 9.7 | 0.00 | 1.83 | 1.17 | 62 | 1014.1 |
| 20260506203224 | 16 | 1 | 4.8 | 9.7 | 0.00 | 1.83 | 1.17 | 63 | 1014.2 |
| 20260506202717 | 16 | 326 | 1.6 | 4.8 | 0.00 | 1.83 | 1.17 | 65 | 1014.1 |
| 20260506202230 | 15 | 309 | 1.6 | 6.4 | 0.00 | 1.83 | 1.17 | 62 | 1014.1 |
| 20260506201723 | 15 | 345 | 3.2 | 9.7 | 0.00 | 1.83 | 1.17 | 62 | 1014.3 |
| 20260506201220 | 15 | 342 | 1.6 | 11.3 | 0.00 | 1.83 | 1.17 | 64 | 1014.3 |
| 20260506200752 | 15 | 328 | 6.4 | 11.3 | 0.00 | 1.83 | 1.17 | 61 | 1014.2 |
| 20260506200223 | 16 | 333 | 1.6 | 9.7 | 0.00 | 1.83 | 1.17 | 61 | 1014.3 |
| 20260506195728 | 16 | 1 | 4.8 | 11.3 | 0.00 | 1.85 | 1.17 | 61 | 1014.1 |
| 20260506195221 | 16 | 325 | 4.8 | 11.3 | 0.00 | 1.85 | 1.17 | 58 | 1014.2 |
| 20260506194714 | 16 | 15 | 1.6 | 11.3 | 0.00 | 1.85 | 1.17 | 60 | 1014.0 |
| 20260506194227 | 16 | 255 | 4.8 | 11.3 | 0.00 | 1.85 | 1.17 | 58 | 1014.1 |
| 20260506193719 | 16 | 336 | 1.6 | 6.4 | 0.00 | 1.85 | 1.17 | 61 | 1014.1 |
| 20260506193252 | 16 | 325 | 1.6 | 9.7 | 0.00 | 1.85 | 1.17 | 58 | 1014.2 |
| 20260506192728 | 16 | 265 | 4.8 | 14.5 | 0.00 | 1.85 | 1.17 | 58 | 1014.3 |
| 20260506192220 | 16 | 284 | 4.8 | 14.5 | 0.00 | 1.85 | 1.17 | 60 | 1014.4 |
| 20260506191733 | 16 | 209 | 3.2 | 9.7 | 0.00 | 1.85 | 1.17 | 58 | 1014.3 |
| 20260506191246 | 16 | 56 | 3.2 | 11.3 | 0.00 | 1.85 | 1.17 | 63 | 1014.2 |
| 20260506190717 | 16 | 26 | 3.2 | 11.3 | 0.00 | 1.85 | 1.17 | 65 | 1014.1 |
| 20260506190230 | 16 | 179 | 3.2 | 11.3 | 0.00 | 1.85 | 1.17 | 62 | 1014.2 |
| 20260506185716 | 16 | 63 | 4.8 | 12.9 | 0.00 | 1.85 | 1.17 | 64 | 1014.1 |
| 20260506185231 | 16 | 328 | 4.8 | 19.3 | 0.00 | 1.85 | 1.17 | 63 | 1014.1 |
| 20260506184722 | 15 | 5 | 4.8 | 19.3 | 0.00 | 1.85 | 1.17 | 61 | 1014.2 |
| 20260506184218 | 15 | 323 | 4.8 | 16.1 | 0.00 | 1.85 | 1.17 | 62 | 1014.1 |
| 20260506183751 | 15 | 293 | 6.4 | 20.9 | 0.00 | 1.85 | 1.17 | 65 | 1014.2 |
| 20260506183221 | 15 | 340 | 11.3 | 20.9 | 0.00 | 1.85 | 1.17 | 62 | 1014.0 |
| 20260506182714 | 15 | 323 | 8.0 | 24.1 | 0.00 | 1.85 | 1.17 | 66 | 1013.9 |
| 20260506182227 | 15 | 3 | 14.5 | 24.1 | 0.00 | 1.85 | 1.17 | 62 | 1013.9 |
| 20260506181719 | 15 | 70 | 6.4 | 19.3 | 0.00 | 1.85 | 1.17 | 62 | 1013.9 |
| 20260506181232 | 15 | 335 | 6.4 | 16.1 | 0.00 | 1.85 | 1.17 | 64 | 1013.9 |
| 20260506180725 | 15 | 13 | 8.0 | 16.1 | 0.00 | 1.85 | 1.17 | 64 | 1013.9 |
| 20260506180222 | 15 | 337 | 8.0 | 14.5 | 0.00 | 1.85 | 1.17 | 64 | 1013.8 |
| 20260506175724 | 15 | 348 | 6.4 | 16.1 | 0.00 | 1.85 | 1.17 | 65 | 1013.9 |
| 20260506175237 | 15 | 347 | 1.6 | 12.9 | 0.00 | 1.85 | 1.17 | 66 | 1013.8 |
| 20260506174749 | 15 | 355 | 8.0 | 12.9 | 0.00 | 1.85 | 1.17 | 64 | 1014.0 |
| 20260506174220 | 15 | 335 | 3.2 | 19.3 | 0.00 | 1.85 | 1.17 | 65 | 1013.9 |
| 20260506173733 | 15 | 27 | 9.7 | 19.3 | 0.00 | 1.85 | 1.17 | 63 | 1014.1 |
| 20260506173225 | 15 | 218 | 4.8 | 11.3 | 0.00 | 1.85 | 1.17 | 67 | 1014.3 |
| 20260506172718 | 15 | 323 | 4.8 | 14.5 | 0.00 | 1.85 | 1.17 | 67 | 1014.2 |
| 20260506172231 | 15 | 292 | 8.0 | 20.9 | 0.00 | 1.85 | 1.17 | 66 | 1014.2 |
| 20260506171723 | 15 | 343 | 4.8 | 12.9 | 0.00 | 1.85 | 1.17 | 67 | 1014.2 |
| 20260506171220 | 15 | 302 | 6.4 | 16.1 | 0.00 | 1.85 | 1.17 | 70 | 1014.3 |
| 20260506170753 | 15 | 340 | 6.4 | 12.9 | 0.00 | 1.85 | 1.17 | 70 | 1014.4 |